RH
59 57 61 56 43 34 26 25 18 15 14 13 12 12 12 15 18 19 20 21 20 21 21 19 19 19 19 24 24 21 22 26 36 45 46 52 47 40 40 38 36 41 43 44
27 18 17 14 14 14 13 13 13 12 12 13 15 17 22 24 25 29 25 25 22 22 18 18 19 24 23 20 21 23 28 36 45 53 58 59 50 40 38 38 41 42 42 46
16 16 16 16 15 15 14 14 14 13 13 14 16 14 23 22 22 19 23 23 19 18 18 20 21 22 20 20 22 24 30 51 69 60 55 49 42 45 44 47 49 46 48 53
19 18 18 18 17 17 17 15 14 14 14 14 18 14 15 25 18 17 16 17 17 17 21 23 21 20 20 23 24 24 29 50 73 72 61 51 51 52 51 53 56 59 60 60
24 25 29 28 23 20 19 17 17 16 15 15 16 16 13 16 18 17 16 19 20 22 21 20 20 21 22 24 25 27 46 66 62 63 58 52 53 58 62 55 59 67 71 71
26 26 27 27 27 30 28 23 21 19 18 17 16 23 15 14 15 16 18 19 20 20 19 19 20 21 22 25 37 63 68 57 52 51 54 64 77 76 79 82 74 67 72 88
21 21 18 18 19 22 28 28 30 37 43 27 23 25 18 18 16 15 16 18 19 20 18 18 20 22 35 66 76 70 68 66 70 67 62 61 69 82 71 65 73 82 83 76
18 19 20 23 21 20 20 22 25 29 32 30 40 35 24 21 19 16 15 16 17 18 19 20 25 57 80 81 71 65 66 50 42 45 57 64 62 64 67 74 81 95 99 76
47 51 57 54 47 41 37 40 35 31 26 28 26 28 27 25 27 21 19 19 21 25 34 52 74 81 76 58 54 49 46 49 58 59 60 66 86 100 100 100 84 59 52 50
64 62 58 52 45 50 52 48 50 50 53 52 37 34 30 32 39 40 40 38 49 47 65 75 65 51 50 50 51 46 42 53 68 79 94 100 100 88 75 61 54 50 51 55
58 54 51 47 47 53 52 55 58 57 59 56 63 58 35 40 36 43 48 46 71 57 56 50 48 49 46 44 46 57 73 76 82 95 99 88 77 67 56 48 43 49 51 54
49 46 45 43 38 36 34 35 35 36 39 46 57 84 54 57 44 47 48 40 44 43 40 40 42 40 48 56 64 60 61 80 92 88 78 68 57 49 49 44 44 48 47 31
52 49 43 38 36 36 36 40 46 46 39 38 33 49 66 60 64 62 53 49 53 51 50 54 57 55 60 68 71 68 88 86 82 78 65 61 52 42 48 41 40 41 30 19
50 44 41 39 39 43 43 43 39 31 32 38 36 37 40 50 44 44 40 44 44 43 46 47 45 48 46 48 68 96 85 82 82 70 58 51 44 45 44 33 26 20 16 13
54 55 54 51 55 55 53 45 44 38 37 31 38 38 38 43 46 48 44 51 45 44 41 43 48 55 78 99 91 86 90 75 58 54 53 56 40 36 26 16 14 12 11 10
59 63 64 64 65 61 65 61 55 47 41 38 35 35 39 43 46 40 43 46 48 48 50 63 81 91 76 76 80 78 65 56 59 55 53 40 33 24 15 12 11 10 9 7
63 63 62 61 58 60 65 71 64 60 49 41 42 40 44 43 45 44 47 46 44 62 68 62 69 72 85 89 72 64 62 64 62 55 40 28 16 15 10 9 9 8 6 5
66 68 71 71 67 72 63 66 64 60 54 50 43 41 39 40 46 40 42 54 59 60 71 88 95 94 81 72 74 81 70 69 52 41 33 19 9 9 10 8 7 5 5 4
64 68 71 69 67 69 63 70 83 67 54 51 47 43 42 42 41 51 54 57 68 79 90 97 88 78 84 83 67 58 61 46 36 23 16 10 9 7 6 4 5 4 4 4
82 78 79 74 64 66 61 54 69 74 61 59 56 56 56 57 62 81 92 95 100 100 100 86 79 78 75 63 60 63 50 34 29 17 11 9 8 5 5 5 4 4 4 4
68 66 84 84 86 82 63 62 64 64 52 47 52 62 56 51 64 79 84 95 92 89 72 70 68 76 83 78 68 57 38 30 19 10 9 8 6 5 4 4 4 4 4 5
70 60 62 72 75 64 58 56 53 58 47 51 56 57 53 51 64 74 78 80 85 79 67 73 84 92 79 71 62 44 27 15 10 9 8 6 5 5 4 4 4 4 5 5
65 65 58 50 56 56 53 43 42 41 46 46 44 45 51 62 76 81 80 86 86 73 72 84 87 87 79 63 48 26 15 10 9 7 6 6 5 4 4 5 5 5 5 6
80 78 68 54 63 56 61 55 43 44 45 44 50 59 78 88 88 91 98 92 68 78 91 84 87 74 66 48 27 15 10 8 6 6 5 4 4 4 5 5 5 6 6 6
100 94 83 81 76 72 48 56 50 46 50 53 63 84 87 96 96 100 96 80 80 98 95 85 72 65 48 28 16 10 8 6 6 5 4 4 4 5 5 6 6 6 6 6
100 100 99 76 64 65 60 60 56 60 66 78 89 92 100 97 99 98 83 82 93 95 78 72 65 54 35 18 10 9 7 5 5 4 4 4 5 5 6 6 6 6 6 6
Wind_Speed
27 28 29 32 32 31 30 33 33 34 34 32 31 29 25 26 25 24 24 28 31 28 33 35 38 34 35 36 41 45 44 44 45 50 51 53 51 51 55 57 58 61 60 64
19 20 21 22 22 23 22 23 23 25 26 28 26 23 24 24 24 27 29 33 32 33 35 38 35 35 36 39 43 44 46 47 52 55 55 55 55 59 62 62 62 65 64 66
16 17 18 19 21 21 22 23 23 25 26 27 28 27 26 26 29 28 32 35 35 36 38 39 39 39 39 43 46 50 51 51 56 57 56 59 63 67 68 69 71 72 73 76
13 15 17 19 20 21 21 22 23 26 27 26 31 29 25 30 31 31 35 36 37 39 41 40 41 43 45 49 53 56 55 55 59 62 64 66 68 71 73 74 76 78 81 85
11 13 15 18 21 22 23 24 27 27 28 28 31 36 26 28 33 38 35 38 39 40 39 40 42 46 50 54 58 59 56 60 62 66 68 70 73 77 78 81 83 88 92 96
11 13 15 17 20 23 25 27 28 29 30 32 35 39 29 31 31 34 38 39 39 41 42 43 45 46 51 58 59 59 63 65 66 68 73 77 81 84 87 90 93 96 100 104
8 7 8 9 12 15 21 24 24 28 30 35 38 42 30 38 35 28 33 39 40 40 42 44 49 53 52 53 58 63 66 69 72 74 77 79 84 87 90 94 99 103 108 112
0 2 4 5 6 7 8 11 15 19 23 26 36 39 30 34 37 35 33 34 40 43 47 50 52 51 54 58 62 63 67 71 74 77 82 85 87 92 95 102 107 112 116 120
5 5 7 9 10 11 12 12 13 14 15 19 25 24 27 30 35 38 38 41 41 44 47 49 51 55 61 63 63 66 69 75 79 83 88 93 97 103 105 110 116 121 128 132
3 5 7 9 12 14 16 18 19 22 23 26 27 27 25 27 31 35 40 41 46 45 48 52 57 59 60 63 67 71 77 83 86 88 92 97 100 105 112 120 127 132 132 134
5 8 10 12 14 17 19 21 23 24 25 27 31 37 32 35 34 38 39 42 46 50 51 55 58 61 65 70 75 79 81 84 89 93 99 105 111 117 125 129 132 131 132 134
9 11 13 15 18 19 20 21 23 28 31 31 34 42 38 41 41 42 45 46 51 51 53 56 61 63 67 72 76 81 85 89 94 100 107 114 121 128 134 132 131 130 130 124
14 16 18 20 23 27 29 30 32 34 36 39 39 41 42 43 43 47 49 49 51 53 56 61 66 71 76 81 86 89 93 99 103 110 118 123 129 132 135 134 133 125 120 119
18 20 22 22 23 27 30 32 34 34 37 42 42 41 45 48 46 48 49 53 54 57 62 68 73 78 81 86 90 95 101 106 113 120 126 131 134 134 134 124 117 115 113 112
19 22 24 26 29 31 36 36 38 39 41 38 43 41 42 45 48 51 50 54 57 62 66 71 77 83 87 91 96 102 107 115 122 129 132 136 131 129 124 114 111 110 109 109
23 26 29 32 34 36 38 41 42 43 44 44 43 45 47 48 48 50 52 57 63 68 73 78 82 85 91 96 103 109 114 122 130 131 131 130 127 124 117 112 109 108 106 104
29 32 35 39 40 41 41 44 46 47 47 45 47 48 47 45 50 53 56 64 68 72 77 82 86 92 97 105 111 118 123 131 135 133 130 127 114 117 112 106 105 104 99 95
36 37 40 43 45 48 43 46 45 48 49 48 47 47 47 50 55 58 61 67 73 79 83 87 92 98 104 110 116 123 131 136 135 132 128 124 113 100 105 100 98 97 90 85
43 46 47 48 48 48 48 46 52 51 56 51 53 53 52 56 58 65 68 73 77 83 89 95 102 107 111 116 125 129 133 134 133 127 123 120 109 104 99 93 87 87 82 78
50 50 51 51 50 50 53 50 52 55 57 55 56 58 59 61 64 71 76 81 87 92 98 104 109 114 121 128 130 134 136 134 129 122 118 109 107 103 95 90 83 78 75 72
51 51 53 52 53 55 56 58 61 62 61 59 60 60 64 67 72 76 82 87 92 98 104 109 115 121 127 131 134 136 138 130 126 118 110 105 101 96 91 84 78 73 70 67
59 59 58 58 60 59 60 63 64 67 65 63 64 66 68 73 78 83 89 94 98 103 110 116 119 127 130 134 136 138 134 124 116 108 104 99 94 88 83 77 73 69 65 63
66 66 63 62 66 67 65 66 68 67 65 64 66 70 74 80 85 90 94 98 104 111 115 120 126 130 133 136 139 136 125 115 106 100 95 89 84 80 73 71 68 65 62 59
65 67 64 60 66 67 68 71 70 68 68 69 73 78 83 86 91 94 99 105 112 115 120 127 128 131 135 138 135 128 117 105 98 92 85 80 76 72 69 66 64 61 58 55
69 68 67 65 68 70 69 70 71 70 71 75 80 85 88 91 94 100 106 111 115 119 127 129 130 132 137 135 129 119 107 98 92 85 79 75 71 69 65 62 61 57 54 52
70 69 68 68 68 70 70 72 73 74 77 80 85 89 91 95 100 106 110 115 120 126 131 130 131 136 137 133 121 108 99 92 85 80 75 71 68 65 62 60 57 55 53 51
Wind_Direction
238 243 248 250 252 252 249 248 245 245 246 245 247 247 250 254 258 264 270 275 281 288 288 290 292 289 287 292 294 297 299 299 298 300 301 299 297 296 297 299 300 299 298 297
234 237 236 238 238 236 235 238 243 244 245 248 251 253 257 258 260 268 275 278 284 284 284 289 286 287 291 296 299 301 301 297 298 299 299 297 296 297 299 296 297 296 296 294
243 246 248 249 251 253 250 248 249 242 247 250 252 252 257 263 268 271 273 278 280 281 283 284 285 288 292 300 302 303 299 297 299 298 296 296 297 300 300 300 300 300 298 297
258 260 264 262 259 259 257 260 257 253 258 262 261 266 258 266 269 274 275 276 276 279 283 282 283 287 289 296 299 299 295 295 298 299 297 298 301 303 304 304 303 302 301 299
245 255 261 267 271 274 269 268 267 265 265 270 264 271 272 259 264 278 280 279 281 280 277 279 284 287 291 295 297 296 295 297 299 298 298 300 301 303 304 304 303 303 301 301
278 274 272 272 269 265 265 267 269 269 271 269 275 273 281 279 276 272 281 284 285 286 286 285 287 290 294 295 296 298 298 299 301 301 301 302 304 304 303 303 302 300 300 299
257 246 262 273 272 274 268 267 273 276 273 271 273 275 280 279 281 283 281 285 289 287 289 291 292 292 293 296 298 300 300 301 301 302 303 303 303 302 300 299 298 298 298 298
302 7 357 353 347 327 309 291 284 284 282 279 273 275 278 279 286 289 285 286 287 287 290 290 291 293 296 299 301 301 300 302 304 305 303 302 302 300 300 299 299 299 298 299
82 60 25 13 12 3 353 347 335 321 307 293 288 285 287 291 288 290 295 295 292 292 291 292 293 295 295 300 302 304 305 304 303 302 304 304 303 303 302 300 299 300 301 303
345 337 339 338 331 327 322 320 318 315 312 307 300 295 297 290 293 295 296 295 293 294 294 296 298 300 301 302 303 302 303 306 306 305 303 302 300 298 298 300 304 305 305 305
302 314 321 319 318 317 317 314 310 308 306 304 304 299 297 293 292 292 290 292 293 297 298 301 303 304 303 304 305 306 306 304 303 302 300 301 302 303 303 304 306 306 306 306
285 294 302 307 308 308 308 303 305 306 303 299 297 298 299 296 297 295 299 301 298 298 301 304 303 303 302 303 301 301 302 302 300 300 300 302 306 308 307 307 307 307 306 305
296 297 300 309 314 317 317 315 311 311 307 302 300 297 294 295 299 300 300 301 300 302 302 301 301 304 305 304 303 303 302 301 301 301 305 306 306 309 306 309 309 307 306 306
297 302 305 306 305 306 305 306 308 309 307 305 301 295 298 298 295 297 300 299 298 298 301 303 303 302 303 304 304 303 302 302 304 305 306 306 308 310 309 308 308 307 305 304
298 304 303 302 305 307 310 311 311 309 309 304 304 299 299 299 299 297 300 300 302 302 301 303 306 307 307 305 304 305 305 305 308 308 308 308 311 311 309 310 307 306 305 304
297 299 300 301 304 303 308 311 311 311 309 310 303 300 298 300 297 300 302 301 303 304 306 309 308 305 304 305 306 306 306 308 310 310 310 312 314 312 310 309 307 306 306 306
293 298 300 302 304 305 308 310 308 310 308 305 301 299 299 297 298 298 300 301 306 306 305 307 307 307 306 307 308 309 310 311 312 314 315 315 315 312 310 310 309 308 309 308
294 297 300 302 302 302 303 305 304 307 308 304 302 299 295 294 296 298 301 304 306 309 309 307 308 309 309 308 310 311 312 312 314 316 316 316 312 312 310 310 310 309 310 308
294 296 297 297 299 300 301 306 306 306 309 306 303 302 302 302 305 306 307 308 309 309 309 310 310 311 312 310 310 313 314 316 317 319 318 315 314 313 313 313 313 311 311 310
296 296 297 298 298 296 298 300 301 304 307 306 304 304 308 308 308 309 311 312 311 311 310 312 313 314 311 313 314 316 318 320 319 319 317 316 314 315 316 315 314 312 311 311
297 298 298 297 295 296 299 301 302 303 306 309 306 305 307 308 310 310 311 310 310 311 312 314 315 315 315 314 316 319 320 319 319 318 317 316 316 316 316 316 314 313 313 311
295 295 296 296 296 295 295 298 300 304 306 306 304 305 306 306 307 310 311 312 312 313 315 315 316 315 316 316 317 320 320 320 319 318 317 316 316 315 315 314 314 313 313 312
293 290 292 294 297 297 298 296 301 304 306 306 307 307 306 309 311 311 311 313 313 315 316 316 316 316 317 317 319 320 320 319 317 317 316 316 315 314 315 315 315 315 315 315
296 295 295 295 296 298 300 302 304 306 307 308 309 309 310 311 312 312 313 313 315 316 316 317 317 317 315 317 319 320 321 319 318 317 317 316 316 315 316 316 316 316 316 315
295 296 297 300 299 299 299 301 303 305 306 307 307 309 311 312 313 313 313 314 315 316 317 317 316 316 317 320 320 321 320 319 319 318 318 317 317 317 317 318 317 317 317 317
293 294 297 296 297 298 301 303 305 305 306 307 308 310 312 313 313 312 313 314 315 316 316 316 316 317 319 319 321 320 320 320 320 319 319 319 319 319 319 319 318 319 319 319